TimeAKDT,TemperatureF,Dew PointF,Humidity,Sea Level PressureIn,VisibilityMPH,Wind Direction,Wind SpeedMPH,Gust SpeedMPH,PrecipitationIn,Events,Conditions,WindDirDegrees,DateUTC
12:16 AM,12.2,10.4,92,30.48,5.0,ENE,3.5,-,N/A,,Overcast,70,2012-10-22 08:16:00
12:36 AM,12.2,10.4,92,30.48,2.0,Calm,Calm,-,N/A,,Overcast,0,2012-10-22 08:36:00
12:56 AM,10.4,8.6,92,30.47,10.0,NE,5.8,-,N/A,,Overcast,50,2012-10-22 08:56:00
1:16 AM,10.4,8.6,92,30.47,1.2,Calm,Calm,-,N/A,,Overcast,0,2012-10-22 09:16:00
1:36 AM,10.4,8.6,92,30.47,2.0,ENE,5.8,-,N/A,,Overcast,60,2012-10-22 09:36:00
1:56 AM,-9999,-9999,N/A,30.46,5.0,NE,5.8,-,N/A,,Overcast,50,2012-10-22 09:56:00
2:16 AM,-9999,-9999,N/A,30.46,2.0,NE,4.6,-,N/A,,Overcast,40,2012-10-22 10:16:00
2:36 AM,-9999,-9999,N/A,30.45,3.0,ENE,3.5,-,N/A,,Overcast,60,2012-10-22 10:36:00
2:56 AM,-9999,-9999,N/A,30.45,9.0,ENE,3.5,-,N/A,,Overcast,60,2012-10-22 10:56:00
3:16 AM,-9999,-9999,N/A,30.45,10.0,NE,3.5,-,N/A,,Overcast,50,2012-10-22 11:16:00
3:36 AM,-9999,-9999,N/A,30.45,10.0,NE,3.5,-,N/A,,Overcast,50,2012-10-22 11:36:00
3:56 AM,-9999,-9999,N/A,30.44,10.0,Calm,Calm,-,N/A,,Overcast,0,2012-10-22 11:56:00
4:16 AM,-9999,-9999,N/A,30.44,10.0,Calm,Calm,-,N/A,,Mostly Cloudy,0,2012-10-22 12:16:00
4:36 AM,-9999,-9999,N/A,30.44,10.0,Calm,Calm,-,N/A,,Mostly Cloudy,0,2012-10-22 12:36:00
4:56 AM,-9999,-9999,N/A,30.44,10.0,Calm,Calm,-,N/A,,Overcast,0,2012-10-22 12:56:00
5:16 AM,-9999,-9999,N/A,30.44,10.0,Calm,Calm,-,N/A,,Partly Cloudy,0,2012-10-22 13:16:00
5:36 AM,-9999,-9999,N/A,30.44,10.0,Calm,Calm,-,N/A,,Clear,0,2012-10-22 13:36:00
5:56 AM,-9999,-9999,N/A,30.43,10.0,Calm,Calm,-,N/A,,Clear,0,2012-10-22 13:56:00
6:16 AM,-9999,-9999,N/A,30.44,10.0,Calm,Calm,-,N/A,,Clear,0,2012-10-22 14:16:00
6:36 AM,-9999,-9999,N/A,30.43,10.0,Calm,Calm,-,N/A,,Clear,0,2012-10-22 14:36:00
6:56 AM,-9999,-9999,N/A,30.44,10.0,Calm,Calm,-,N/A,,Clear,0,2012-10-22 14:56:00
7:16 AM,-9999,-9999,N/A,30.44,10.0,Calm,Calm,-,N/A,,Clear,0,2012-10-22 15:16:00
7:36 AM,-9999,-9999,N/A,30.44,10.0,Calm,Calm,-,N/A,,Clear,0,2012-10-22 15:36:00
7:56 AM,-9999,-9999,N/A,30.43,10.0,Calm,Calm,-,N/A,,Clear,0,2012-10-22 15:56:00
8:16 AM,-9999,-9999,N/A,30.43,10.0,Calm,Calm,-,N/A,,Clear,0,2012-10-22 16:16:00
8:36 AM,-9999,-9999,N/A,30.43,10.0,Calm,Calm,-,N/A,,Clear,0,2012-10-22 16:36:00
8:56 AM,-9999,-9999,N/A,30.43,10.0,Calm,Calm,-,N/A,,Clear,0,2012-10-22 16:56:00
9:16 AM,-9999,-9999,N/A,30.43,10.0,Calm,Calm,-,N/A,,Clear,0,2012-10-22 17:16:00
9:36 AM,-9999,-9999,N/A,30.43,10.0,Calm,Calm,-,N/A,,Clear,0,2012-10-22 17:36:00
9:56 AM,-9999,-9999,N/A,30.43,10.0,Calm,Calm,-,N/A,,Clear,0,2012-10-22 17:56:00
10:16 AM,-9999,-9999,N/A,30.43,10.0,Calm,Calm,-,N/A,,Clear,0,2012-10-22 18:16:00
10:36 AM,-9999,-9999,N/A,30.44,10.0,Calm,Calm,-,N/A,,Clear,0,2012-10-22 18:36:00
10:56 AM,-9999,-9999,N/A,30.43,10.0,Calm,Calm,-,N/A,,Clear,0,2012-10-22 18:56:00
11:16 AM,-9999,-9999,N/A,30.43,8.0,Calm,Calm,-,N/A,,Clear,0,2012-10-22 19:16:00
11:36 AM,-9999,-9999,N/A,30.44,10.0,Calm,Calm,-,N/A,,Clear,0,2012-10-22 19:36:00
11:56 AM,-9999,-9999,N/A,30.44,10.0,Calm,Calm,-,N/A,,Clear,0,2012-10-22 19:56:00
12:16 PM,-9999,-9999,N/A,30.44,10.0,Calm,Calm,-,N/A,,Partly Cloudy,0,2012-10-22 20:16:00
12:36 PM,-9999,-9999,N/A,30.44,10.0,Calm,Calm,-,N/A,,Clear,0,2012-10-22 20:36:00
12:56 PM,-9999,-9999,N/A,30.44,10.0,Calm,Calm,-,N/A,,Partly Cloudy,0,2012-10-22 20:56:00
1:16 PM,-9999,-9999,N/A,30.44,10.0,Calm,Calm,-,N/A,,Partly Cloudy,0,2012-10-22 21:16:00
1:36 PM,-9999,-9999,N/A,30.44,10.0,Calm,Calm,-,N/A,,Partly Cloudy,0,2012-10-22 21:36:00
1:56 PM,-9999,-9999,N/A,30.44,10.0,Calm,Calm,-,N/A,,Partly Cloudy,0,2012-10-22 21:56:00
2:16 PM,-9999,-9999,N/A,30.44,10.0,Calm,Calm,-,N/A,,Partly Cloudy,0,2012-10-22 22:16:00
2:36 PM,-9999,-9999,N/A,30.44,10.0,Calm,Calm,-,N/A,,Partly Cloudy,0,2012-10-22 22:36:00
2:56 PM,-9999,-9999,N/A,30.44,10.0,Calm,Calm,-,N/A,,Partly Cloudy,0,2012-10-22 22:56:00
3:36 PM,-9999,-9999,N/A,30.45,10.0,Calm,Calm,-,N/A,,Partly Cloudy,0,2012-10-22 23:36:00
3:56 PM,-9999,-9999,N/A,30.45,10.0,Calm,Calm,-,N/A,,Partly Cloudy,0,2012-10-22 23:56:00
4:16 PM,-9999,-9999,N/A,30.45,10.0,Calm,Calm,-,N/A,,Partly Cloudy,0,2012-10-23 00:16:00
4:36 PM,-9999,-9999,N/A,30.45,10.0,Calm,Calm,-,N/A,,Partly Cloudy,0,2012-10-23 00:36:00
4:56 PM,-9999,-9999,N/A,30.45,10.0,Calm,Calm,-,N/A,,Partly Cloudy,0,2012-10-23 00:56:00
5:16 PM,-9999,-9999,N/A,30.44,10.0,Calm,Calm,-,N/A,,Partly Cloudy,0,2012-10-23 01:16:00
5:36 PM,-9999,-9999,N/A,30.45,10.0,Calm,Calm,-,N/A,,Partly Cloudy,0,2012-10-23 01:36:00
5:56 PM,-9999,-9999,N/A,30.45,4.0,Calm,Calm,-,N/A,,Scattered Clouds,0,2012-10-23 01:56:00
6:16 PM,-9999,-9999,N/A,30.45,9.0,Calm,Calm,-,N/A,,Scattered Clouds,0,2012-10-23 02:16:00
6:36 PM,-9999,-9999,N/A,30.46,9.0,Calm,Calm,-,N/A,,Scattered Clouds,0,2012-10-23 02:36:00
6:56 PM,-9999,-9999,N/A,30.46,6.0,Calm,Calm,-,N/A,,Scattered Clouds,0,2012-10-23 02:56:00
7:16 PM,-9999,-9999,N/A,30.47,6.0,Calm,Calm,-,N/A,,Scattered Clouds,0,2012-10-23 03:16:00
7:36 PM,-9999,-9999,N/A,30.47,6.0,Calm,Calm,-,N/A,,Scattered Clouds,0,2012-10-23 03:36:00
7:56 PM,-9999,-9999,N/A,30.47,6.0,Calm,Calm,-,N/A,,Scattered Clouds,0,2012-10-23 03:56:00
8:16 PM,-9999,-9999,N/A,30.47,9.0,Calm,Calm,-,N/A,,Overcast,0,2012-10-23 04:16:00
8:36 PM,-9999,-9999,N/A,30.47,9.0,Calm,Calm,-,N/A,,Overcast,0,2012-10-23 04:36:00
8:56 PM,-9999,-9999,N/A,30.48,10.0,Calm,Calm,-,N/A,,Overcast,0,2012-10-23 04:56:00
9:16 PM,-9999,-9999,N/A,30.48,7.0,Calm,Calm,-,N/A,,Overcast,0,2012-10-23 05:16:00
9:36 PM,-9999,-9999,N/A,30.48,5.0,Calm,Calm,-,N/A,,Overcast,0,2012-10-23 05:36:00
9:56 PM,-9999,-9999,N/A,30.49,6.0,Calm,Calm,-,N/A,,Overcast,0,2012-10-23 05:56:00
10:16 PM,-9999,-9999,N/A,30.49,10.0,Calm,Calm,-,N/A,,Overcast,0,2012-10-23 06:16:00
10:36 PM,-9999,-9999,N/A,30.49,10.0,Calm,Calm,-,N/A,,Overcast,0,2012-10-23 06:36:00
10:56 PM,-9999,-9999,N/A,30.50,10.0,Calm,Calm,-,N/A,,Overcast,0,2012-10-23 06:56:00
11:16 PM,-9999,-9999,N/A,30.50,10.0,Calm,Calm,-,N/A,,Overcast,0,2012-10-23 07:16:00
11:36 PM,-9999,-9999,N/A,30.50,10.0,Calm,Calm,-,N/A,,Overcast,0,2012-10-23 07:36:00
11:56 PM,-9999,-9999,N/A,30.51,10.0,Calm,Calm,-,N/A,,Overcast,0,2012-10-23 07:56:00